#timestamp,LO_Frequency,Hit,StdDev 
1560290415.3,286046998.1,N
1560290435.1,286046997.4,N
1560290455.9,286046994.5,N
1560290475.7,286046990.2,N
1560290495.5,286046989.7,N
1560290515.4,286046986.6,Y
1560290535.2,286046986.5,P
1560290555.1,286046987.9,N
1560290556.0,286046987.9,N
1560290575.8,286046983.7,N
1560290595.6,286046985.0,N
1560290615.5,286046985.1,N
1560290635.3,286046983.3,Y
1560290655.1,286046995.6,P
1560290675.9,286046997.0,N
1560290695.7,286046999.4,N
1560290715.6,286046997.4,N
1560290735.4,286046995.3,N
1560290755.2,286046998.0,N
1560290775.1,286046993.9,N
1560290776.0,286046993.9,N
1560290795.8,286046993.5,N
1560290815.6,286046996.4,N
1560290835.5,286046994.6,N
1560290855.3,286046994.8,N
1560290875.1,286046993.3,N
1560290895.9,286046995.6,N
1560290915.7,286046997.5,N
1560290935.6,286046996.1,N
1560290955.4,286046994.6,N
1560290975.2,286046994.6,N
1560290995.1,286046993.4,N
1560290996.0,286046993.4,N
1560291015.8,286046994.9,N
1560291035.6,286046996.9,N
1560291055.5,286046997.4,N
1560291075.3,286046997.4,N
1560291095.2,286046995.2,N
1560291115.9,286046995.0,N
1560291135.7,286046996.9,N
1560291155.6,286046996.5,N
1560291175.4,286047000.9,N
1560291195.2,286046996.5,N
1560291215.1,286046996.5,N
1560291216.0,286046996.5,N
1560291235.8,286047001.2,N
1560291255.7,286047000.1,N
1560291275.5,286047000.8,N
1560291295.3,286047001.2,N
1560291315.2,286046998.7,N
1560291335.9,286047000.8,N
1560291355.7,286047000.6,N
1560291375.6,286047000.2,N
1560291395.4,286047000.2,N
1560291415.2,286046999.9,N
1560291435.1,286047004.3,N
1560291436.0,286047004.3,N
1560291455.8,286047001.6,N
1560291475.7,286047003.9,N
1560291495.5,286047003.5,N
1560291515.3,286047005.8,N
1560291535.2,286047003.1,N
1560291555.0,286047005.5,N
1560291555.9,286047005.5,N
1560291575.7,286047004.0,N
1560291595.6,286047002.9,N
1560291615.4,286047002.6,N
1560291635.3,286046998.8,N
1560291655.1,286046997.4,N
1560291656.0,286046997.4,N
1560291675.8,286046995.4,N
1560291695.7,286046993.7,N
1560291715.5,286046993.6,N
1560291735.3,286046993.6,N
1560291755.2,286046994.1,N
1560291775.0,286046994.0,N
1560291775.9,286046994.0,N
1560291795.8,286046993.9,N
1560291815.6,286046994.0,N
1560291835.4,286046994.3,N
1560291855.3,286046991.9,N
1560291875.1,286046991.8,N
1560291895.8,286046991.9,N
1560291915.7,286046994.8,N
1560291935.5,286046992.5,N
1560291955.4,286046988.6,N
1560291975.2,286046991.6,N
1560291995.0,286046991.4,N
1560291995.9,286046991.4,N
1560292015.8,286046991.1,N
1560292035.6,286046989.0,N
1560292055.4,286046988.8,N
1560292075.3,286046993.2,N
1560292095.1,286046993.1,N
1560292115.9,286046990.2,N
1560292135.7,286046992.1,N
1560292155.5,286046993.8,N
1560292175.4,286046993.9,N
1560292195.2,286046992.5,Y
1560292215.0,286047002.4,P
1560292216.0,286047002.4,N
1560292235.8,286047000.1,N
1560292255.6,286046999.8,N
1560292275.5,286047001.0,N
1560292295.3,286046998.3,N
1560292315.1,286047000.8,N
1560292335.9,286046998.9,N
1560292355.7,286046998.6,N
1560292375.6,286046999.6,N
1560292395.4,286046998.4,N
1560292415.2,286046998.7,N
1560292435.1,286046997.3,N
1560292436.0,286046997.3,N
1560292455.8,286046996.8,N
1560292475.6,286047001.0,N
1560292495.5,286046999.5,N
1560292515.3,286046996.5,N
1560292535.2,286046999.3,N
1560292555.9,286046998.2,N
1560292575.7,286047002.7,N
1560292595.6,286047001.7,N
1560292615.4,286047004.4,N
1560292635.2,286047004.0,N
1560292655.1,286047003.6,N
1560292656.0,286047003.6,N
1560292675.8,286047001.8,N
1560292695.7,286047001.7,N
1560292715.5,286047001.8,N
1560292735.3,286047003.2,N
1560292755.2,286047005.9,N
1560292775.9,286047009.2,Y
1560292795.7,286047008.2,P
1560292815.6,286047007.7,N
1560292835.4,286047010.0,N
1560292855.3,286047011.3,Y
1560292875.1,286047005.1,P
1560292876.0,286047005.1,P
1560292895.8,286047007.0,P
1560292915.7,286047007.0,Y
1560292935.5,286047002.2,P
1560292955.3,286046999.7,N
1560292975.2,286047000.6,N
1560292995.0,286047000.1,N
1560292995.9,286047000.1,N
1560293015.8,286047001.0,N
1560293035.6,286047000.1,N
1560293055.4,286047001.7,N
1560293075.3,286047003.2,N
1560293095.1,286047003.4,N
1560293115.8,286047001.5,N
1560293135.7,286047002.1,N
1560293155.5,286047000.7,N
1560293175.4,286046999.0,N
1560293195.2,286046999.4,N
1560293215.0,286046999.0,N
1560293215.9,286046999.0,N
1560293235.8,286047000.6,N
1560293255.6,286047000.0,N
1560293275.4,286047001.3,N
1560293295.3,286047002.7,N
1560293315.1,286047002.5,N
1560293335.9,286047002.1,N
1560293355.7,286047002.2,N
1560293375.5,286047001.6,N
1560293395.4,286047004.4,N
1560293415.2,286046999.8,N
1560293435.0,286047003.1,N
1560293436.0,286047003.1,N
1560293455.8,286047003.4,N
1560293475.6,286047003.4,N
1560293495.5,286047004.0,N
1560293515.3,286047003.0,N
1560293535.1,286047005.0,Y
1560293555.9,286047007.1,P
1560293575.7,286047009.2,P
1560293595.6,286047008.7,N
1560293615.4,286047008.7,N
1560293635.2,286047007.8,N
1560293655.1,286047006.5,N
1560293656.0,286047006.5,N
1560293675.8,286047004.9,N
1560293695.7,286047004.6,N
1560293715.5,286047008.5,Y
1560293735.3,286047004.4,P
1560293755.2,286047007.2,P
1560293775.0,286047002.9,N
1560293775.9,286047002.9,N
1560293795.7,286047001.9,N
1560293815.6,286047001.6,N
1560293835.4,286047002.3,N
1560293855.3,286047004.3,N
1560293875.1,286047001.4,N
1560293876.0,286047001.4,N
1560293895.8,286047004.3,N
1560293915.7,286047005.9,Y
1560293935.5,286047002.4,P
1560293955.3,286047002.3,P
1560293975.2,286047004.4,P
1560293995.0,286047001.3,N
1560293995.9,286047001.3,N
